WetterOnline ( http://www.wetteronline.de )

Wetter aktuell Altmark

Aktuelles Wetter: Gardelegen (48m)

6-stündlich | Neueste Meldungen
Ortszeit Temperatur Wetter
Sa, 20.10. 2:00 0.4° C wolkig
Fr, 19.10. 20:00 3.9° C wolkig
Fr, 19.10. 14:00 13.5° C wolkig
Fr, 19.10. 8:00 -1.1° C wolkenlos
Fr, 19.10. 2:00 5.7° C wolkenlos
Do, 18.10. 20:00 13.5° C bewölkt
Do, 18.10. 14:00 15.5° C bedeckt
Do, 18.10. 8:00 7.6° C Nebel
Ortszeit Temperatur Wetter
Sa, 20.10. 4:30 2.5° C bewölkt
Sa, 20.10. 4:20 2.5° C bewölkt
Sa, 20.10. 4:10 2.4° C bewölkt
Sa, 20.10. 4:00 2.1° C bedeckt
Sa, 20.10. 3:50 2.1° C bedeckt
Sa, 20.10. 3:40 1.9° C bedeckt
Sa, 20.10. 3:30 1.5° C bedeckt
Sa, 20.10. 3:00 0.8° C bewölkt
Sa, 20.10. 2:30 0.2° C bewölkt
Sa, 20.10. 2:00 0.4° C wolkig
Sa, 20.10. 1:30 0.9° C wolkig
Ortszeit Relative Feuchte Sichtweite
Sa, 20.10. 2:00 96% 19 km
Fr, 19.10. 20:00 87% 40 km
Fr, 19.10. 14:00 54% 23 km
Fr, 19.10. 8:00 96% 3.7 km
Fr, 19.10. 2:00 91% 50 km
Do, 18.10. 20:00 79% 16 km
Do, 18.10. 14:00 78% 12 km
Do, 18.10. 8:00 98% 0.5 km
Ortszeit Relative Feuchte Sichtweite
Sa, 20.10. 4:30 89% 30 km
Sa, 20.10. 4:20 89% -
Sa, 20.10. 4:10 91% -
Sa, 20.10. 4:00 92% 30 km
Sa, 20.10. 3:50 92% -
Sa, 20.10. 3:40 92% -
Sa, 20.10. 3:30 92% 30 km
Sa, 20.10. 3:00 95% 28 km
Sa, 20.10. 2:30 96% 15 km
Sa, 20.10. 2:00 96% 19 km
Sa, 20.10. 1:30 95% 28 km
Ortszeit Niederschlagsmenge Niederschlagsart
Sa, 20.10. 2:00 0.0 l/m2 in 6 Std. -
Fr, 19.10. 20:00 0.0 l/m2 in 12 Std. -
Fr, 19.10. 14:00 0.0 l/m2 in 6 Std. -
Fr, 19.10. 8:00 0.0 l/m2 in 12 Std. -
Fr, 19.10. 2:00 0.0 l/m2 in 6 Std. -
Do, 18.10. 20:00 0.0 l/m2 in 12 Std. -
Do, 18.10. 14:00 0.0 l/m2 in 6 Std. -
Do, 18.10. 8:00 0.0 l/m2 in 12 Std. -
Ortszeit Niederschlagsmenge Niederschlagsart
Sa, 20.10. 4:30 0.0 l/m2 in 1 Std. -
Sa, 20.10. 4:20 keine Meldung -
Sa, 20.10. 4:10 keine Meldung -
Sa, 20.10. 4:00 0.0 l/m2 in 1 Std. -
Sa, 20.10. 3:50 keine Meldung -
Sa, 20.10. 3:40 keine Meldung -
Sa, 20.10. 3:30 0.0 l/m2 in 1 Std. -
Sa, 20.10. 3:00 0.0 l/m2 in 1 Std. -
Sa, 20.10. 2:30 0.0 l/m2 in 1 Std. -
Sa, 20.10. 2:00 0.0 l/m2 in 1 Std. -
Sa, 20.10. 1:30 0.0 l/m2 in 1 Std. -
Ortszeit Stärke Spitze Richtung
km/h Bft. km/h Grad Sektor
Sa, 20.10. 2:00 0 0 4 - -
Fr, 19.10. 20:00 2 1 17 350° N
Fr, 19.10. 14:00 6 1 15 360° N
Fr, 19.10. 8:00 0 0 7 - -
Fr, 19.10. 2:00 0 0 22 - -
Do, 18.10. 20:00 7 2 22 360° N
Do, 18.10. 14:00 7 2 22 350° N
Do, 18.10. 8:00 4 1 7 240° SW
Ortszeit Stärke Spitze Richtung
km/h Bft. km/h Grad Sektor
Sa, 20.10. 4:30 0 0 4 - -
Sa, 20.10. 4:20 0 0 - 210° SW
Sa, 20.10. 4:10 2 1 - 170° S
Sa, 20.10. 4:00 0 0 4 - -
Sa, 20.10. 3:50 2 1 - 220° SW
Sa, 20.10. 3:40 2 1 - 240° SW
Sa, 20.10. 3:30 0 0 4 - -
Sa, 20.10. 3:00 0 0 4 - -
Sa, 20.10. 2:30 4 1 4 180° S
Sa, 20.10. 2:00 0 0 4 - -
Sa, 20.10. 1:30 2 1 4 180° S
Ortszeit Untergrenze Bedeckung Gattung
total tief tief mittel hoch
Sa, 20.10. 2:00 7500 m 7/8 0/8 - - -
Fr, 19.10. 20:00 10500 m 8/8 0/8 - - -
Fr, 19.10. 14:00 1020 m 7/8 2/8 - - -
Fr, 19.10. 8:00 - 0/8 0/8 - - -
Fr, 19.10. 2:00 - 0/8 0/8 - - -
Do, 18.10. 20:00 810 m 7/8 7/8 - - -
Do, 18.10. 14:00 420 m 8/8 8/8 - - -
Do, 18.10. 8:00 <30 m 8/8 8/8 - - -
Ortszeit Bedeckungsgrad in Achtel und Wolkenuntergrenze
Sa, 20.10. 4:30 7(1350m)
Sa, 20.10. 4:20 7(1350m)
Sa, 20.10. 4:10 2(960m) 7(1380m)
Sa, 20.10. 4:00 3(960m) 8(1380m)
Sa, 20.10. 3:50 3(960m) 8(1380m)
Sa, 20.10. 3:40 1(990m) 8(1380m)
Sa, 20.10. 3:30 8(1260m) 8(6600m) 8(7200m)
Sa, 20.10. 3:00 7(1200m) 7(5700m) 8(6900m)
Sa, 20.10. 2:30 6(1170m) 6(6600m) 7(8100m)
Sa, 20.10. 2:00 6(7500m) 7(8100m)
Sa, 20.10. 1:30 2(6300m) 8(7500m)
Ortszeit Luftdruck NN (hPa) Tendenz (hPa in 3 Std.)
Sa, 20.10. 2:00 1028 + 0,3
Fr, 19.10. 20:00 1027 + 1,1
Fr, 19.10. 14:00 1026 - 1,1
Fr, 19.10. 8:00 1027 + 0,6
Fr, 19.10. 2:00 1026 + 0,2
Do, 18.10. 20:00 1024 + 1,2
Do, 18.10. 14:00 1022 + 0,1
Do, 18.10. 8:00 1022 + 1,2
Ortszeit Luftdruck NN (hPa) Tendenz (hPa in 3 Std.)
Sa, 20.10. 4:30 1028 + 0,8
Sa, 20.10. 4:20 1028 keine Meldung
Sa, 20.10. 4:10 1028 keine Meldung
Sa, 20.10. 4:00 1028 + 0,7
Sa, 20.10. 3:50 1028 keine Meldung
Sa, 20.10. 3:40 1028 keine Meldung
Sa, 20.10. 3:30 1028 + 0,9
Sa, 20.10. 3:00 1028 + 0,4
Sa, 20.10. 2:30 1027 + 0,3
Sa, 20.10. 2:00 1028 + 0,3
Sa, 20.10. 1:30 1027 + 0,1
Ortszeit Schneehöhe (cm)
Sa, 20.10. 2:00 0
Fr, 19.10. 20:00 0
Fr, 19.10. 14:00 0
Fr, 19.10. 8:00 0
Fr, 19.10. 2:00 0
Do, 18.10. 20:00 0
Do, 18.10. 14:00 0
Do, 18.10. 8:00 0
Ortszeit Schneehöhe (cm)
Sa, 20.10. 4:30 0
Sa, 20.10. 4:20 0
Sa, 20.10. 4:10 0
Sa, 20.10. 4:00 0
Sa, 20.10. 3:50 0
Sa, 20.10. 3:40 0
Sa, 20.10. 3:30 0
Sa, 20.10. 3:00 0
Sa, 20.10. 2:30 0
Sa, 20.10. 2:00 0
Sa, 20.10. 1:30 0
Link zu dieser Seite / Seite empfehlen

Das Wetter in ...